TimeEST,TemperatureF,Dew PointF,Humidity,Sea Level PressureIn,VisibilityMPH,Wind Direction,Wind SpeedMPH,Gust SpeedMPH,PrecipitationIn,Events,Conditions,WindDirDegrees,DateUTC
12:53 AM,-7.1,-16.1,65,30.34,10.0,WNW,6.9,-,N/A,,Clear,290,2013-12-14 05:53:00
1:53 AM,-7.1,-16.1,65,30.38,10.0,WNW,6.9,-,N/A,,Clear,300,2013-12-14 06:53:00
2:53 AM,-8.0,-16.1,68,30.41,10.0,NW,6.9,-,N/A,,Clear,310,2013-12-14 07:53:00
3:53 AM,-9.9,-17.0,71,30.43,10.0,North,3.5,-,N/A,,Clear,350,2013-12-14 08:53:00
4:53 AM,-9.9,-17.0,71,30.46,10.0,North,4.6,-,N/A,,Clear,350,2013-12-14 09:53:00
5:53 AM,-9.9,-17.0,71,30.48,10.0,NW,3.5,-,N/A,,Clear,320,2013-12-14 10:53:00
6:53 AM,-11.0,-18.0,71,30.53,10.0,WNW,5.8,-,N/A,,Clear,290,2013-12-14 11:53:00
7:53 AM,-9.9,-17.0,71,30.56,10.0,WNW,6.9,-,N/A,,Clear,290,2013-12-14 12:53:00
8:53 AM,-8.0,-17.0,65,30.58,10.0,WNW,11.5,-,N/A,,Clear,290,2013-12-14 13:53:00
9:53 AM,-4.0,-16.1,56,30.58,10.0,NW,9.2,-,N/A,,Clear,310,2013-12-14 14:53:00
10:53 AM,-0.9,-15.0,52,30.57,10.0,NW,11.5,-,N/A,,Clear,320,2013-12-14 15:53:00
11:53 AM,1.0,-14.1,49,30.57,10.0,Variable,4.6,-,N/A,,Clear,0,2013-12-14 16:53:00
12:53 PM,3.0,-13.0,47,30.57,10.0,Variable,6.9,-,N/A,,Clear,0,2013-12-14 17:53:00
1:53 PM,3.0,-11.9,50,30.58,10.0,Variable,4.6,-,N/A,,Clear,0,2013-12-14 18:53:00
2:53 PM,3.0,-11.9,50,30.60,10.0,West,4.6,-,N/A,,Clear,270,2013-12-14 19:53:00
3:53 PM,-0.9,-11.0,62,30.58,10.0,Calm,Calm,-,N/A,,Clear,0,2013-12-14 20:53:00
4:53 PM,-4.0,-9.9,76,30.60,10.0,South,3.5,-,N/A,,Clear,190,2013-12-14 21:53:00
5:53 PM,-8.0,-11.9,83,30.60,10.0,Calm,Calm,-,N/A,,Clear,0,2013-12-14 22:53:00
6:53 PM,-11.0,-14.1,86,30.59,10.0,SSE,3.5,-,N/A,,Clear,160,2013-12-14 23:53:00
7:53 PM,-9.0,-13.0,83,30.58,10.0,Calm,Calm,-,N/A,,Clear,0,2013-12-15 00:53:00
8:53 PM,-5.1,-9.9,80,30.56,10.0,Calm,Calm,-,N/A,,Clear,0,2013-12-15 01:53:00
9:53 PM,-2.0,-8.0,76,30.56,10.0,Calm,Calm,-,N/A,,Clear,0,2013-12-15 02:53:00
10:53 PM,-0.0,-9.0,66,30.54,10.0,Calm,Calm,-,N/A,,Overcast,0,2013-12-15 03:53:00
11:53 PM,-0.0,-9.9,63,30.53,10.0,Calm,Calm,-,N/A,,Overcast,0,2013-12-15 04:53:00